Wind_Speed
14 14 15 14 13 13 12 12 12 12 13 13 13 14 13 12 12 12 12 13 13 14 14 14 15 16 16 16 17 17 18 18 18 18 18 19 20 20 20 21 21 20 21
15 15 15 14 14 14 13 13 13 13 14 14 14 14 13 13 13 14 14 14 15 15 15 15 15 16 16 17 18 18 19 19 19 19 19 20 21 21 22 22 21 21 22
16 16 16 15 15 15 14 15 15 15 15 15 15 14 14 14 14 15 16 17 17 17 17 17 17 18 18 19 19 20 20 21 21 22 22 22 22 23 23 23 24 24 24
17 17 17 17 16 16 16 17 17 18 18 17 16 14 14 15 16 17 18 19 19 18 18 19 19 19 19 20 20 21 22 22 23 23 24 24 24 24 24 25 25 26 26
19 19 18 18 18 18 18 18 19 19 18 18 16 15 15 16 17 18 19 20 20 19 19 20 20 21 21 21 21 22 23 24 25 25 25 26 26 26 26 27 28 28 28
19 20 20 19 19 19 20 20 19 19 19 18 17 17 17 18 19 20 21 21 21 21 21 21 21 22 22 22 23 24 25 25 26 27 27 27 27 28 28 28 28 29 29
21 21 21 20 20 20 20 21 21 20 19 19 20 20 19 20 21 22 22 22 23 23 22 23 23 24 24 24 25 26 27 27 28 28 28 29 29 29 29 30 30 30 30
23 23 23 22 22 22 22 22 22 22 21 20 20 20 20 21 23 23 24 24 25 25 25 25 25 26 27 27 27 27 28 28 29 30 30 30 31 31 30 31 31 31 31
23 23 23 23 23 24 24 23 23 22 22 22 21 21 22 22 23 24 25 26 26 26 26 27 27 28 27 27 28 29 29 30 30 31 31 32 32 32 32 32 32 32 31
24 24 25 25 25 25 25 24 23 23 23 23 23 23 23 24 24 25 27 27 27 27 28 28 28 29 29 29 29 30 31 30 31 31 32 32 33 33 33 33 32 32 32
25 26 26 27 27 27 26 24 24 24 24 24 24 24 24 25 25 26 27 27 27 28 28 28 29 29 29 29 30 30 31 31 31 31 32 32 32 32 33 33 33 33 33
27 27 27 27 27 27 27 25 24 25 24 24 24 25 25 25 26 26 27 28 28 29 29 29 29 29 29 29 30 30 30 30 30 31 32 32 32 32 32 33 32 33 33
27 27 27 27 26 26 26 25 24 24 24 24 25 25 25 25 25 25 26 27 27 28 29 28 28 29 29 30 30 30 30 29 30 31 31 31 31 31 32 32 32 32 33
26 26 26 26 25 25 25 24 22 23 24 25 26 26 26 26 26 26 27 27 28 29 29 28 29 29 30 30 30 29 29 29 30 30 30 30 30 31 31 32 32 33 33
25 26 26 26 26 26 25 23 23 23 24 25 26 26 25 25 26 26 26 27 28 29 29 29 29 30 30 30 29 29 30 30 30 30 30 30 31 31 31 32 32 33 34
26 26 26 26 26 26 25 25 24 25 25 25 25 25 25 26 27 27 28 28 29 29 30 30 30 30 30 30 30 30 30 31 31 30 30 30 31 32 32 33 33 34 35
26 27 27 27 26 26 25 25 25 25 25 24 24 25 26 27 27 28 29 29 29 30 30 30 30 30 30 31 30 30 30 30 30 30 31 32 32 33 33 34 34 34 35
27 27 26 26 25 25 25 24 23 23 23 24 25 26 27 27 28 28 29 30 30 30 30 30 30 31 30 30 30 30 30 30 30 31 32 33 33 33 33 34 34 34 34
27 26 25 24 24 23 23 22 22 23 23 25 26 26 27 28 29 29 30 30 30 30 30 30 30 30 29 30 30 30 30 31 32 32 33 33 33 33 33 33 33 33 33
26 25 24 24 23 23 23 23 23 23 24 25 26 26 27 28 28 28 29 29 30 30 30 30 30 30 30 30 30 30 31 31 32 32 32 32 32 32 32 32 33 33 33
24 23 23 23 23 23 23 23 24 24 24 25 26 26 27 27 27 27 28 29 29 30 30 30 30 30 30 30 30 31 31 31 32 32 31 31 31 31 32 32 33 33 33
23 23 23 23 22 22 23 23 24 24 24 25 26 26 26 27 28 28 29 30 30 30 30 30 30 30 30 29 29 30 31 31 31 31 30 31 31 31 32 32 32 32 32
23 23 22 22 22 22 22 23 23 24 25 25 26 26 27 28 29 29 29 30 30 30 30 30 30 29 29 29 29 29 30 30 30 30 30 31 31 31 31 32 32 31 31
21 21 21 21 21 22 23 23 24 24 25 25 26 27 27 28 28 29 29 29 29 30 29 29 29 29 29 29 29 29 29 29 29 30 30 30 30 31 31 30 31 31 31
20 20 20 20 20 21 22 23 23 24 24 25 25 26 27 27 28 28 29 29 29 29 29 29 29 29 29 29 29 29 29 29 30 30 30 30 30 30 30 30 30 30 31
20 20 20 21 21 22 22 22 22 23 24 25 25 26 26 27 27 28 28 29 29 29 29 29 28 28 28 29 29 29 29 30 31 30 30 30 31 31 31 30 30 30 30
Wind_Direction
309 310 314 315 312 312 311 312 311 312 312 311 312 311 310 310 312 315 316 315 314 312 310 308 308 307 307 307 307 307 305 303 301 301 299 298 297 297 298 296 292 291 291
303 304 308 311 307 305 304 305 307 308 308 307 307 308 305 305 308 310 311 311 311 311 308 307 307 308 307 306 306 306 305 303 302 302 301 299 298 298 298 297 295 294 291
298 298 301 303 303 302 301 301 303 305 304 305 304 303 302 302 304 307 307 308 308 307 304 304 305 306 304 303 303 305 305 304 303 301 301 300 299 298 297 295 296 295 293
296 297 298 299 300 301 302 301 300 300 299 296 300 298 301 301 303 306 306 307 307 307 304 304 305 303 302 302 303 303 303 303 302 302 300 299 298 296 295 294 295 296 294
295 296 296 297 297 298 299 299 298 298 295 291 294 299 301 300 303 304 305 307 307 305 305 304 304 303 301 301 301 302 302 302 301 300 300 299 298 296 294 294 294 295 294
292 295 293 294 296 297 298 297 298 295 289 290 291 294 297 299 301 302 303 304 305 304 303 303 304 303 301 300 299 299 299 301 301 301 301 300 298 297 295 294 294 296 295
290 292 292 293 293 296 297 296 296 294 291 289 289 289 292 296 297 298 299 299 301 302 303 302 302 301 300 300 300 300 300 299 300 300 299 299 298 297 297 295 295 295 294
289 290 290 291 292 292 293 293 292 291 291 291 290 291 294 295 297 298 298 298 300 301 301 301 301 300 300 298 298 299 299 299 299 300 299 299 298 298 297 296 296 296 296
287 290 291 290 290 290 289 288 289 288 289 292 295 294 293 294 297 299 299 301 300 299 299 299 299 299 300 299 297 298 298 298 297 298 299 299 299 298 297 296 296 296 296
286 288 289 290 290 289 289 287 288 288 287 289 292 293 293 293 296 296 298 300 300 299 297 297 297 298 298 298 299 300 300 298 298 298 299 298 298 297 297 296 295 295 295
285 288 289 289 290 289 289 287 287 289 288 289 291 293 293 294 296 296 298 299 300 301 299 298 298 300 300 301 301 301 300 299 299 298 298 298 298 298 297 296 296 295 295
285 287 287 287 288 287 288 286 286 288 288 290 293 294 295 297 298 298 299 299 301 302 301 301 301 301 301 301 302 301 301 300 299 299 298 298 298 298 298 297 296 295 295
285 286 286 287 287 287 286 288 287 286 289 291 293 295 297 299 300 301 301 300 301 303 304 304 303 303 302 302 303 302 302 302 302 302 300 299 298 298 297 297 296 297 297
282 284 286 286 288 289 288 288 290 289 290 292 293 295 298 300 301 302 302 302 303 304 305 306 305 304 304 303 303 303 303 303 304 304 303 303 302 302 300 299 297 296 297
281 283 285 285 286 287 286 288 288 288 290 293 294 294 296 300 302 304 305 304 304 305 305 305 305 305 304 303 301 301 302 302 302 304 304 303 303 302 302 302 301 299 298
282 284 285 286 287 286 285 286 287 288 290 291 293 296 298 300 301 303 304 304 304 306 306 306 305 303 303 303 301 301 302 303 302 303 304 304 304 304 303 303 302 300 300
283 284 286 286 286 286 286 286 287 288 289 290 292 294 296 297 299 301 303 304 306 306 306 307 305 304 302 302 302 302 302 303 304 304 304 304 303 303 304 303 302 302 302
284 285 286 286 285 286 286 286 287 287 288 290 293 295 297 298 300 302 304 305 305 306 307 307 306 305 303 302 303 303 303 304 304 305 305 304 304 304 304 304 304 304 304
284 285 285 284 284 285 286 287 288 289 290 292 295 297 298 300 301 302 303 304 304 306 307 307 307 306 305 303 303 304 305 305 306 306 306 306 305 305 306 306 306 306 306
282 283 282 282 283 284 286 287 288 289 291 293 295 297 299 300 301 302 303 304 304 304 306 307 307 306 305 304 303 304 305 305 307 307 306 306 307 307 308 308 308 308 308
279 280 281 281 282 283 285 286 288 290 291 292 295 297 299 301 302 302 303 304 304 304 305 305 305 306 306 304 304 305 306 307 308 308 309 309 310 310 311 310 309 309 309
280 280 282 282 283 285 287 288 290 291 292 294 294 295 298 301 302 303 303 303 302 302 304 304 304 305 306 307 309 309 308 308 309 310 311 311 311 311 311 311 311 311 311
279 281 282 282 282 284 286 288 289 291 292 294 296 298 299 300 301 302 302 302 303 303 304 304 305 306 308 310 311 311 310 309 309 310 311 311 311 311 311 312 312 313 313
281 281 282 284 285 285 287 289 292 294 295 296 297 299 300 301 301 302 303 302 303 304 305 305 307 307 308 308 309 310 310 310 311 312 312 312 312 312 312 312 313 313 314
279 280 281 283 284 287 289 290 292 295 297 298 300 301 302 302 303 304 304 305 305 305 306 307 307 307 307 307 307 308 310 310 311 311 312 312 312 313 313 313 313 313 314
279 280 281 283 286 289 290 291 293 296 298 299 302 303 303 304 305 306 306 306 307 308 308 308 309 308 308 308 307 307 308 309 310 311 312 312 313 313 313 313 313 313 313
Height
5907 5906 5905 5904 5903 5902 5900 5900 5899 5898 5897 5896 5895 5894 5892 5891 5890 5889 5888 5886 5885 5884 5882 5881 5880 5878 5877 5875 5874 5872 5871 5869 5868 5866 5864 5863 5861 5860 5858 5857 5855 5853 5852
5905 5904 5903 5902 5900 5899 5898 5897 5896 5895 5894 5893 5891 5890 5889 5888 5887 5886 5885 5884 5883 5881 5880 5878 5877 5875 5873 5872 5870 5869 5867 5865 5863 5862 5860 5858 5856 5854 5853 5851 5849 5847 5846
5902 5901 5900 5899 5898 5897 5895 5894 5893 5892 5891 5890 5888 5887 5886 5885 5885 5883 5882 5881 5879 5878 5876 5875 5873 5871 5869 5868 5866 5864 5862 5861 5859 5857 5855 5853 5851 5849 5847 5845 5844 5842 5841
5899 5898 5897 5896 5895 5894 5893 5891 5890 5889 5887 5886 5884 5883 5883 5882 5881 5880 5879 5877 5876 5874 5872 5870 5869 5867 5865 5863 5861 5859 5857 5856 5854 5852 5850 5848 5845 5843 5841 5840 5838 5835 5834
5895 5894 5893 5892 5891 5890 5889 5888 5886 5884 5883 5882 5881 5880 5880 5879 5878 5876 5875 5873 5871 5869 5867 5866 5864 5862 5860 5858 5856 5854 5852 5850 5848 5846 5844 5841 5839 5837 5835 5833 5831 5829 5826
5891 5890 5889 5888 5887 5886 5885 5883 5881 5879 5878 5878 5877 5877 5876 5875 5874 5872 5870 5869 5867 5865 5863 5861 5859 5857 5854 5852 5850 5848 5846 5844 5842 5840 5837 5835 5832 5830 5828 5825 5823 5821 5819
5887 5886 5885 5884 5882 5881 5880 5879 5878 5876 5875 5874 5873 5871 5871 5870 5869 5867 5865 5864 5862 5860 5858 5856 5854 5851 5849 5847 5844 5842 5840 5837 5836 5833 5831 5828 5825 5823 5820 5818 5815 5813 5810
5881 5880 5879 5879 5878 5877 5876 5874 5873 5871 5870 5869 5868 5867 5866 5865 5863 5862 5860 5859 5857 5855 5853 5850 5848 5845 5843 5840 5838 5836 5833 5831 5828 5826 5823 5820 5818 5815 5812 5810 5807 5805 5802
5876 5875 5874 5873 5872 5871 5870 5869 5868 5866 5865 5864 5863 5862 5861 5859 5858 5856 5855 5853 5851 5849 5846 5844 5841 5839 5836 5834 5831 5828 5826 5823 5820 5817 5815 5812 5809 5806 5804 5801 5799 5796 5794
5871 5870 5869 5868 5866 5865 5863 5863 5862 5860 5859 5858 5857 5856 5855 5854 5852 5850 5849 5847 5844 5842 5839 5837 5835 5832 5829 5826 5824 5821 5818 5815 5812 5809 5806 5804 5801 5798 5795 5792 5790 5787 5784
5865 5864 5863 5862 5861 5859 5858 5857 5856 5855 5853 5852 5851 5850 5849 5847 5846 5844 5842 5840 5837 5835 5832 5830 5827 5824 5822 5819 5816 5813 5810 5807 5804 5801 5798 5795 5792 5789 5786 5783 5780 5778 5775
5859 5858 5857 5856 5855 5853 5852 5851 5850 5849 5847 5845 5844 5843 5842 5841 5839 5837 5835 5833 5830 5828 5825 5823 5820 5817 5814 5811 5808 5805 5801 5798 5795 5792 5789 5786 5783 5780 5777 5774 5771 5768 5765
5853 5852 5851 5850 5848 5847 5845 5843 5843 5843 5842 5840 5839 5837 5836 5834 5832 5830 5828 5826 5823 5821 5818 5815 5813 5810 5807 5803 5800 5797 5793 5790 5787 5784 5781 5778 5775 5771 5768 5765 5762 5759 5756
5847 5846 5844 5843 5842 5841 5840 5838 5837 5837 5835 5834 5833 5831 5830 5828 5826 5824 5821 5819 5816 5814 5811 5809 5806 5802 5799 5796 5792 5789 5786 5783 5779 5776 5773 5769 5766 5763 5759 5756 5753 5750 5747
5840 5839 5838 5837 5836 5835 5834 5832 5831 5831 5829 5828 5827 5825 5823 5822 5820 5817 5815 5812 5810 5807 5804 5801 5798 5795 5791 5788 5785 5782 5779 5775 5772 5768 5765 5762 5758 5755 5751 5748 5744 5741 5737
5834 5832 5831 5830 5829 5828 5827 5826 5825 5824 5823 5821 5820 5818 5817 5815 5813 5811 5809 5806 5803 5800 5797 5794 5790 5787 5784 5780 5777 5774 5771 5767 5764 5760 5757 5754 5750 5746 5743 5739 5735 5732 5728
5827 5825 5824 5823 5822 5821 5820 5819 5818 5818 5816 5815 5814 5812 5810 5808 5806 5804 5801 5798 5795 5793 5790 5786 5783 5779 5776 5773 5769 5766 5763 5759 5756 5752 5749 5745 5741 5738 5734 5730 5726 5722 5718
5819 5818 5817 5815 5814 5814 5813 5812 5811 5811 5810 5808 5807 5805 5804 5801 5799 5797 5794 5791 5788 5785 5782 5778 5775 5771 5768 5764 5761 5758 5754 5751 5748 5744 5740 5736 5732 5728 5724 5720 5717 5713 5708
5812 5811 5810 5809 5808 5807 5806 5806 5805 5804 5803 5802 5800 5799 5797 5794 5792 5789 5787 5784 5781 5777 5774 5771 5767 5763 5760 5756 5753 5750 5746 5743 5739 5735 5731 5727 5723 5719 5715 5711 5707 5703 5699
5805 5804 5803 5803 5802 5801 5800 5800 5799 5798 5797 5795 5794 5792 5790 5787 5785 5782 5779 5776 5773 5770 5767 5763 5760 5756 5752 5749 5745 5742 5738 5735 5731 5727 5723 5718 5714 5710 5706 5702 5698 5694 5690
5798 5798 5797 5796 5796 5795 5794 5794 5793 5792 5790 5789 5787 5785 5783 5780 5778 5775 5772 5769 5766 5762 5759 5756 5752 5748 5745 5741 5737 5734 5730 5727 5723 5718 5714 5710 5706 5702 5698 5694 5690 5686 5682
5792 5792 5791 5790 5789 5788 5788 5787 5786 5785 5784 5782 5779 5777 5776 5773 5770 5767 5764 5761 5758 5755 5751 5748 5744 5741 5737 5733 5730 5726 5723 5719 5715 5711 5707 5703 5699 5695 5691 5686 5682 5678 5673
5786 5786 5785 5784 5783 5783 5781 5781 5780 5778 5777 5775 5773 5771 5768 5766 5763 5760 5757 5754 5751 5747 5744 5740 5737 5733 5729 5726 5722 5719 5715 5711 5707 5703 5699 5695 5691 5687 5683 5678 5674 5670 5666
5780 5779 5779 5778 5777 5777 5776 5775 5773 5772 5770 5768 5766 5763 5761 5758 5755 5752 5749 5746 5743 5740 5736 5733 5729 5726 5722 5719 5715 5711 5707 5703 5699 5695 5691 5687 5683 5679 5675 5670 5666 5662 5658
5774 5774 5773 5773 5772 5771 5770 5768 5767 5765 5763 5761 5758 5756 5753 5751 5748 5745 5742 5739 5735 5732 5729 5725 5722 5719 5715 5711 5708 5704 5700 5696 5692 5688 5684 5680 5676 5672 5667 5663 5659 5655 5650
5769 5768 5768 5767 5766 5765 5763 5762 5760 5759 5757 5754 5751 5749 5746 5743 5741 5737 5734 5731 5728 5725 5722 5718 5715 5711 5708 5704 5701 5697 5693 5689 5685 5681 5677 5673 5669 5664 5660 5656 5651 5647 5643